Location: Chiroubles
(46.1812°N, 4.6660°E)
Time: 04:21:54
(UTC+00:00)

Tiros 1 - Pass Details

Date: 04 December 2020
Orbit: 630 x 663 km, 48.4° (Epoch: 16 January)

Event Time Altitude Azimuth Distance (km) Brightness Sun altitude
Rises 19:02:00 0° 287° (WNW) 2,990 11.6 -31.3°
Reaches altitude 10° 19:04:36 10° 277° (W) 2,071 10.6 -31.8°
Enters shadow 19:07:56 27° 234° (SW) 1,253 9.0 -32.4°
